Regional Weather Roundup
Issued by NWS

Home | Current Version | Previous Version | Text Only | Print | Product List | Glossary On
Versions: 1 2 3 4 5 6 7 8 9 10 11 12 13 14 15 16 17 18 19 20 21 22 23 24 25 26 27 28 29 30 31 32 33 34 35 36 37 38 39 40 41 42 43 44 45 46 47 48 49 50
000
ASUS46 KPQR 281410
RWROR

OREGON REGIONAL WEATHER ROUNDUP
NATIONAL WEATHER SERVICE PORTLAND OR
600 AM PST TUE FEB 28 2017

NOTE: "FAIR" INDICATES FEW OR NO CLOUDS BELOW 12,000 FEET WITH
NO SIGNIFICANT WEATHER AND/OR OBSTRUCTIONS TO VISIBILITY.

ORZ001>013-281500-
NORTHWEST OREGON


CITY           SKY/WX    TMP DP  RH WIND       PRES   REMARKS
ASTORIA        LGT RAIN  39  33  79 NW5       29.97R
NEWPORT        RAIN      41  37  87 W8        30.05R
PORTLAND       MOCLDY    37  34  89 CALM      29.99R
VANCOUVER WA   PTCLDY    36  35  96 CALM      29.98R
SCAPPOOSE      CLOUDY    32  32 100 CALM      29.97R
HILLSBORO      FOG       33  33 100 CALM      29.99R VSB 1/4
AURORA         PTCLDY    37  34  89 SW5       30.00R WCI  33
MCMINNVILLE    MOCLDY    35  33  92 SW6       29.99R WCI  30
SALEM          MOCLDY    37  34  89 S6        30.00R WCI  32
CORVALLIS        N/A     36  34  93 S3        30.02R
EUGENE         MOCLDY    36  35  96 S9        30.04R WCI  29
$$

ORZ021-028-281500-
SOUTHWEST OREGON


CITY           SKY/WX    TMP DP  RH WIND       PRES   REMARKS
NORTH BEND     CLOUDY    43  41  93 W13       30.08R
BROOKINGS      LGT RAIN  38  38 100 CALM      30.12R
ROSEBURG       CLOUDY    40  37  89 S3        30.06R
SEXTON SUMMIT  CLOUDY    28  26  92 CALM      29.96R FOG
MEDFORD        CLOUDY    37  34  89 CALM      30.06R
$$

ORZ014>016-041-281500-
COLUMBIA GORGE


CITY           SKY/WX    TMP DP  RH WIND       PRES   REMARKS
TROUTDALE      CLOUDY    40  36  86 SW8       29.99R WCI  34
THE DALLES     CLOUDY    35  31  85 SW8       29.91R WCI  29
$$

ORZ029>031-041-044-049-050-061>064-502-503-505>511-281500-
EASTERN OREGON


CITY           SKY/WX    TMP DP  RH WIND       PRES   REMARKS
REDMOND        CLEAR     30  19  63 W9        29.85R WCI  22
BEND           PTCLDY    27  21  80 CALM      29.86R
PRINEVILLE     PTCLDY    27  21  80 CALM      29.85R
KLAMATH FALLS  FLURRIES  25  25 100 S8        29.94R WCI  16
LAKEVIEW       CLOUDY    23  18  80 SW6       29.92R WCI  16
HERMISTON      MOCLDY    36  31  82 SW16G24   29.84R WCI  26
PENDLETON      MIX PCPN  34  30  85 W21       29.81R WCI  22
JOHN DAY       LGT SNOW  26  24  93 SW7       29.81R WCI  18
MEACHAM        LGT SNOW  27  21  78 W8G20     29.73R WCI  19
LA GRANDE      MOCLDY    30  23  74 N3        29.76R
BAKER CITY     FLURRIES  27  25  92 N5        29.77R WCI  22
BURNS          CLOUDY    26  19  74 SW15      29.82R WCI  14
ROME             N/A     25  16  68 S10       29.83R WCI  15
ONTARIO        PTCLDY    29  21  72 CALM      29.85R
$$



USA.gov is the U.S. government's official web portal to all federal, state and local government web resources and services.